STARLINK-11106, 59765

Orbit data source: Space-Track

STARLINK-11106, 59765 is a payload satellite owned by SpaceX/Seattle (US) in LEO that was launched on Tue, 14 May 2024 UTC via an FALCON 9 launch vehicle from the Air Force Western Test Range (AFWTR). Payload-class satellites include a variety of spacecraft equipped with specific instruments for various scientific and technological missions. These include communications satellites like Starlink; space stations such as the ISS; scientific satellites like the Hubble; Earth observation satellites from companies like Planet Labs, Umbra, and HawkEye 360; GPS; miniature CubeSats for education and research; and military/defense satellites.

Loading next visibility...
Identifier
59765, 2024-091N
Orbit
LEO
Country
Flag of USUS
Related business
Manufacturer
SpaceX/Seattle
Mission
Operational Commercial Communications
Bus & Motor
STARLINK V2MD, Unknown motor
Mass
960 kg wet, ~910 kg dry
Launch date (UTC)
2024-05-14 (2 years ago)
Launch vehicle
FALCON 9
Launch site
Air Force Western Test Range (AFWTR)
Object type
Payload
Rocket body
Debris
Shape & HBR
Box + 2 Pan, 18.1 m
Radar Cross Section
36.964 m², Large (>1 m²)

Expand to show TLE details & history
Last TLE update: 3 days ago

TLE from 3 days ago
0 STARLINK-11106
1 59765U 24091N   26170.91928434 -.00001232  00000-0 -53134-5 0  9995
2 59765  53.1605  62.0141 0001238  95.7909 264.3250 15.69699345121576
Epoch: 2026-06-19T22:03Z
TLE epoch observation values (Epoch: 2026-06-19T22:03:46.166Z)
Latitude
-0.00005°
Longitude
-177.06965°
Altitude
360.755 km
Speed
7.694 km/s
True Right ascension
04h 08m 03s
True Declination
0° 00' 00"
Sunlit
Object was in daylight at epoch
Visualization orbit readout
Latitude
Unknown
Longitude
Unknown
Altitude
Unknown
Speed
Unknown
Apparent Right ascension
Unknown
Apparent Declination
Unknown
Sunlit
N/A
Visualization observer readout
Local Sidereal Time
21:25:55
Azimuth
Unknown
Elevation
Unknown
Doppler factor
Unknown
Orbital elements
Apogee altitude
360.852 km
Perigee altitude
359.184 km
Semi-major axis
6,738.155 km
Eccentricity
0.00012
Inclination
53.1605°
RAAN
62.0141°
Arg. of periapsis
95.7909°
True anomaly
264.31088°
Mean anomaly
264.325°
Eccentric anomaly
264.31794°
Mean motion
3.92402 °/min
Orbital period
91.74 mins
BSTAR
-0.0000053134
Loading maneuver chart data...
Computing Atmospheric mass density...
Loading historical data...
Loading historical data...
Loading historical data...
Loading historical data...
Loading historical data...
Loading historical data...
Loading historical data...

Documentation

Showing up to 5 results
|